Hourly Data Report for September 07, 2017

All times are specified in Local Standard Time (LST). Add 1 hour to adjust for Daylight Saving Time where and when it is observed.

ARCTIC BAY CS
NUNAVUT

72°59'34.000" N
85°00'44.000" W
10.00 m
2400404
71592
XAT

Download Data

Hourly Data (September 2017)
Hourly Data Report for September 7, 2017
Temp Definition
°C
Dew Point Temp Definition
°C
Rel Hum Definition
%
Wind Dir Definition
10's deg

Wind Spd Definition
km/h
Visibility Definition
km
Stn Press Definition
kPa
Hmdx Definition


Wind Chill Definition


Weather Definition


TIME
00:00 -0.2 -3.1 81 28 17   101.27   -5 LegendNANA
01:00 -0.4 -3.2 82 28 13   101.25   -5 LegendNANA
02:00 -0.4 -3.5 80 27 11   101.24   -4 LegendNANA
03:00 -0.3 -3.8 77 24 16   101.22   -5 LegendNANA
04:00 -0.1 -3.6 78 23 21   101.19   -6 LegendNANA
05:00 -0.8 -3.9 79 21 20   101.17   -6 LegendNANA
06:00 -1.2 -3.7 83 18 11   101.10   -5 LegendNANA
07:00 -0.5 -4.5 74 21 14   101.05   -5 LegendNANA
08:00 -0.6 -4.2 77 20 18   100.99   -6 LegendNANA
09:00 -0.7 -3.9 79 16 23   100.94   -7 LegendNANA
10:00 -0.9 -3.2 85 16 18   100.88   -6 LegendNANA
11:00 0.4 -3.8 73 16 20   100.80     LegendNANA
12:00 0.5 -4.0 72 14 20   100.74     LegendNANA
13:00 0.7 -4.0 71 17 35   100.65     LegendNANA
14:00 0.9 -4.4 68 16 34   100.57     LegendNANA
15:00 0.8 -4.7 67 17 40   100.50     LegendNANA
16:00 0.5 -4.8 68 15 32   100.43     LegendNANA
17:00 -0.1 -3.5 77 15 30   100.33   -7 LegendNANA
18:00 0.1 -2.5 83 15 28   100.26     LegendNANA
19:00 -0.1 -1.7 90 15 25   100.13   -6 LegendNANA
20:00 0.1 -1.0 92 14 25   100.01     LegendNANA
21:00 -0.9 -1.5 96 28 17   99.95   -6 LegendNANA
22:00 -1.6 -2.0 97 29 18   99.92   -7 LegendNANA
23:00 -2.6 -3.1 97 32 17   99.89   -8 LegendNANA

Notes on Data Quality.

Legend

  • E = Estimated
  • M = Missing
  • NA = Not Available
  • ‡ = Partner data that is not subject to review by the National Climate Archives
Date modified: